This is the latest recevied weather packets stored in our database for station/object N6GPM. If no packets are shown the sender has not sent any weather packets the latest 10 day(s).
| Time | Temp. | Humidity | Pressure | Rain* | Wind** | Luminosity | Snow |
|---|---|---|---|---|---|---|---|
| 1787447732 | 34.44° C | 23% | 1017.4 hPa | 0 mm | - | 120 W/m² | - |
| 1787447427 | 34.44° C | 23% | 1017.6 hPa | 0 mm | - | 135 W/m² | - |
| 1787447123 | 34.44° C | 22% | 1017.5 hPa | 0 mm | - | 152 W/m² | - |
| 1787446819 | 35° C | 21% | 1017.5 hPa | 0 mm | - | 169 W/m² | - |
| 1787446513 | 35° C | 22% | 1017.7 hPa | 0 mm | - | 185 W/m² | - |
| 1787446209 | 35° C | 21% | 1017.6 hPa | 0 mm | - | 205 W/m² | - |
| 1787445906 | 35° C | 22% | 1017.5 hPa | 0 mm | - | 224 W/m² | - |
| 1787445602 | 35° C | 22% | 1017.5 hPa | 0 mm | - | 243 W/m² | - |
| 1787445297 | 35° C | 22% | 1017.7 hPa | 0 mm | - | 263 W/m² | - |
| 1787444992 | 35° C | 23% | 1017.2 hPa | 0 mm | - | 283 W/m² | - |
| 1787444688 | 35.56° C | 22% | 1017.4 hPa | 0 mm | - | 304 W/m² | - |
| 1787444384 | 35.56° C | 23% | 1017.5 hPa | 0 mm | - | 326 W/m² | - |
| 1787444079 | 35.56° C | 24% | 1017.5 hPa | 0 mm | - | 349 W/m² | - |
| 1787443772 | 36.11° C | 22% | 1017.4 hPa | 0 mm | - | 370 W/m² | - |
| 1787443467 | 35.56° C | 23% | 1017.8 hPa | 0 mm | - | 392 W/m² | - |
| 1787443166 | 36.11° C | 24% | 1017.3 hPa | 0 mm | - | 411 W/m² | - |
| 1787442862 | 35.56° C | 24% | 1017.4 hPa | 0 mm | - | 432 W/m² | - |
| 1787442559 | 35.56° C | 24% | 1017.5 hPa | 0 mm | - | 453 W/m² | - |
| 1787442254 | 36.11° C | 24% | 1017.4 hPa | 0 mm | - | 474 W/m² | - |
| 1787441949 | 35.56° C | 25% | 1017.5 hPa | 0 mm | - | 493 W/m² | - |
| 1787441644 | 36.11° C | 25% | 1017.4 hPa | 0 mm | - | 518 W/m² | - |
| 1787441338 | 36.11° C | 24% | 1017.5 hPa | 0 mm | - | 534 W/m² | - |
| 1787441035 | 36.67° C | 24% | 1017.5 hPa | 0 mm | - | 554 W/m² | - |
| 1787440730 | 36.11° C | 24% | 1017.5 hPa | 0 mm | - | 573 W/m² | - |
| 1787440425 | 36.67° C | 24% | 1017.7 hPa | 0 mm | - | 595 W/m² | - |
* Rain latest hour (hover to see other rain measurements)
** Current wind speed in m/s (hover to see current wind gust speed)